Regional Weather Roundup
Issued by NWS Pendleton, OR

Home | Current Version | Previous Version | Text Only | Print | Product List | Glossary On
Versions: 1 2 3 4 5 6 7 8 9 10 11 12 13 14 15 16 17 18 19 20 21 22 23 24 25 26 27 28 29 30 31 32 33 34 35 36 37 38 39 40 41 42 43 44 45 46 47 48 49 50
473
ASUS46 KPDT 222004
RWRPDT
PENDLETON REGIONAL WEATHER ROUNDUP
NATIONAL WEATHER SERVICE PENDLETON OREGON
1200 PM PST WED FEB 22 2017

NOTE: FAIR INDICATES FEW OR NO CLOUDS BELOW 12,000 FEET WITH NO
SIGNIFICANT WEATHER AND/OR OBSTRUCTIONS TO VISIBILITY.

# INDICATES UNOFFICIAL STATION AND DATA

WAZ520-222110-
EAST SLOPES OF WASHINGTON CASCADES

CITY            SKY/WX      TMP DP  RH  WIND    PRES   REMARKS
#CLE ELUM HS    N/A         37  23  56  W7      30.03F
#CLE ELUM LAKE  N/A         36  26  67  W2      30.11F
#GLENWOOD       N/A         39  28  64  CALM    30.14F
#MANASTASH CYN  N/A         38  19  46  S2      30.01F
#NELSON 3SW     N/A         34  24  66  W1      30.35F
#NILE           N/A         38  22  52  NW1     29.38F
#TEANAWAY 4NE   N/A         37  27  67  W3      N/A
#TROUT LAKE 1NE N/A         38  25  59  W3      30.14F
#TROUT LAKE 1E  N/A         42  26  53  CALM    30.11F
$$

WAZ521-222110-
SIMCOE HIGHLANDS

CITY            SKY/WX      TMP DP  RH  WIND    PRES   REMARKS
#CENTERVILLE 1SWN/A         34  29  82  W1      30.12F
#GOLDENDALE 1NE N/A         37  21  52  S2      N/A
#GOLDENDALE 4W  N/A         41   7  24  CALM    30.11F
#GOODNOE HILLS  N/A         43  29  57  W8      30.01F
#LYLE 6NE       N/A         39  34  82  SW10    30.12F
#PITT 4SE       N/A         33  29  85  W6      30.19F
$$

WAZ026-222110-
KITTITAS VALLEY

CITY            SKY/WX      TMP DP  RH  WIND    PRES   REMARKS
ELLENSBURG AP   MOCLDY      40  26  57  NW13    30.06F WCI 32
#ELLENSBURG CWU N/A         41  27  57  N9      30.06F
#ELLENSBURG 3NE N/A         37  28  70  W5      28.13S
#ELLENSBURG 1E  N/A         42  N/A N/A NW2     N/A
#KITTITAS 4N    N/A         38  27  64  NW8     30.08F
#KITTITAS 3S    N/A         36  29  75  S3      30.12F
#THORP 6N       N/A         34  26  72  W14     30.14F WCI 25
$$

WAZ027-222110-
YAKIMA VALLEY

CITY            SKY/WX      TMP DP  RH  WIND    PRES   REMARKS
SUNNYSIDE AP    PTCLDY      33  32  96  W3      30.12F
YAKIMA AIRPORT  PTCLDY      45  24  43  W6      30.10F
YAKIMA-VAGABOND SUNNY       41  22  46  CALM    30.07F
#DONALD 2NE     N/A         46   2  16  S7      28.95F
#GRANDVIEW      N/A         41  28  59  W1      30.16F
#MABTON         N/A         39  36  89  W3      30.12F
#MOXEE 2E       N/A         42   0  17  W3      30.02F
#NACHES 2SW     N/A         41  25  53  W6      30.07F
#TERRACE HTS    N/A         47  29  49  CALM    30.11F
#TOPPENISH      N/A         41  32  70  CALM    30.06F
#W YAKIMA       N/A         42  25  51  W5      30.13F
#WHITE SWAN 5E  N/A         47  33  58  CALM    30.16F
#WILEY CITY 3W  N/A         40  21  46  SW1     30.06F
$$

WAZ028-222110-
LOWER COLUMBIA BASIN...WASHINGTON

CITY            SKY/WX      TMP DP  RH  WIND    PRES   REMARKS
PASCO           PTCLDY      47  29  49  NW6     30.13F
PROSSER AWOS    N/A         43  32  65  W9      30.15F
RICHLAND AWOS   PTCLDY      48  30  49  SW3     30.12F
#BENTON CITY    N/A         43  30  60  W3      30.05F
#CONNELL 5N     N/A         36  34  92  NW2     30.14F
#CONNELL 5NW    N/A         32  31  96  NW5     30.11S
#ELTOPIA 6NW    N/A         44  36  73  CALM    29.08S
#KAHLOTUS       N/A         40  31  70  N7      30.12F
#KENNEWICK 3S   N/A         45  32  60  CALM    30.14F
#PATERSON       N/A         42  37  82  CALM    30.13F
#SAGEMOOR 2W    N/A         43  33  67  N1      29.98F
#TOUCHET 2S     N/A         45  34  65  S1      30.12F
#WEST PASCO     N/A         47  35  63  W1      30.11F
$$

WAZ029-222110-
FOOTHILLS OF THE BLUES...WASHINGTON

CITY            SKY/WX      TMP DP  RH  WIND    PRES   REMARKS
WALLA WALLA AP  MOCLDY      42  31  65  S13     30.09F WCI 35
#CLYDE 6NW      N/A         40  31  70  CALM    30.11F
#DAYTON SCHOOL  N/A         39  24  54  S6      30.09F
#LOWDEN 2SE     N/A         45  34  65  S3      30.09F
#PLEASANT VIEW 1N/A         39  34  82  S9      30.17S
#PRESCOTT       N/A         43  37  79  SW3     30.13F
#WHITMAN COLLEGEN/A         42  31  65  S7      30.18F
#WAITSBURG 5S   N/A         38  33  82  S7      30.23F
#WALLA WALLA 5E N/A         42  35  76  SW12    N/A    WCI 35
#WHITMAN MISSIONN/A         44  34  68  CALM    30.14F
$$

WAZ030-222110-
BLUE MOUNTAINS...WASHINGTON

CITY            SKY/WX      TMP DP  RH  WIND    PRES   REMARKS
#DIXIE 5SE      N/A         30  27  88  SW8     29.96S
#SKI BLUEWOOD   N/A         28  25  88  N2      29.93F
$$

ORZ009-041-WAZ024-222110-
COLUMBIA RIVER GORGE

CITY            SKY/WX      TMP DP  RH  WIND    PRES   REMARKS
HOOD RIVER AP   PTCLDY      45  30  55  W6      30.17S
THE DALLES AP   PTCLDY      47  31  53  NW17    30.14F WCI 40
#ARLINGTON AIRPON/A         43  32  65  W3      30.15F
#ARLINGTON HS   N/A         46  29  51  W8      30.05F
#CELILO DOT     N/A         44  26  49  SW8     N/A
#LYLE           N/A         45  35  68  W13     30.17F WCI 39
#MOSIER 1S      N/A         43  19  38  CALM    30.12S
#MURDOCK        N/A         44  34  68  NW14    30.15F WCI 37
#RUFUS DOT      N/A         46  29  51  W8      N/A
#SMITHVILLE     N/A         44  37  76  NW13    30.12F WCI 38

$$

ORZ510-222110-
NORTH CENTRAL OREGON

CITY            SKY/WX      TMP DP  RH  WIND    PRES   REMARKS
#CHENOWITH 1W   N/A         34  29  82  W20     N/A    WCI 23
#COW CYN RST AREN/A         37  22  54  W3      N/A
#DUFUR 9E       N/A         34  29  82  NW9     30.20F
#GRASS VALLEY 1SN/A         37  28  70  NW8     30.21F
#KENT DOT       N/A         36  17  45  N7      N/A
#MAUPIN SCHOOL  N/A         44  30  58  CALM    30.15F
#MORO SCHOOL    N/A         36  31  82  NW14    30.16F WCI 27
#SHANIKO 5WSW   N/A         34  15  45  N6      N/A
#SHANIKO 4NW    N/A         32  22  66  W5      30.03F
#TYGH VALLEY 2NEN/A         43  34  70  CALM    30.14F
#WAPANITIA AIRPON/A         41  29  62  SW2     30.16F
#WASCO AIRPORT  N/A         38  30  73  W12     30.04  WCI 30
#WASCO 5NE      N/A         37  31  79  N6      30.15F
$$

ORZ511-222110-
CENTRAL OREGON

CITY            SKY/WX      TMP DP  RH  WIND    PRES   REMARKS
BEND AIRPORT    PTCLDY      32  27  82  CALM    30.05F
MADRAS AIRPORT  PTCLDY      37  23  56  W7      30.11F
PRINEVILLE AP   MOCLDY      34  27  75  W7      30.05F
REDMOND AIRPORT MOCLDY      35  25  66  VRB3    30.06F
#ASHWOOD SCHOOL N/A         37  24  59  CALM    30.03F
#BEND 1SW       N/A         32  27  82  NE3     N/A
#BEND-AWBREY    N/A         32  29  89  N3      30.15F
#BEND-KIM LN    N/A         34  29  82  NE1     30.11F
#CULVER         N/A         37  27  67  CALM    30.08F
#CULVER 8W      N/A         40  19  42  CALM    30.06F
#LAKE BILLY CHINN/A         38  N/A N/A N2      30.16F
#POWELL BUTTE   N/A         32  22  66  W3      30.00F
#WARM SPRINGS   N/A         42  27  55  CALM    30.08S

$$


ORZ509-222110-
EAST SLOPES OF OREGON CASCADES

CITY            SKY/WX      TMP DP  RH  WIND    PRES   REMARKS
SISTERS AWOS    N/A         36  25  64  SW12    30.02F WCI 28
#BLUE BOX PASS  N/A         35  N/A N/A NE1     N/A
#CAMP SHERMAN   N/A         37  23  56  N3      30.22S
#LA PINE 4NW    N/A         31  23  72  CALM    30.17F
#LAVA BUTTE DOT N/A         31  19  61  NE3     N/A
#SISTERS ODOT   N/A         36  N/A N/A SW7     N/A
#SISTERS 3N     N/A         36  23  59  CALM    30.02F
#SUNRIVER       N/A         31  25  78  N2      30.15F
#TUMALO 3W      N/A         33  27  78  CALM    30.04S
#WANOGA BUTTE D N/A         22  20  92  E3      N/A

$$

ORZ044-222110-
LOWER COLUMBIA BASIN...OREGON

CITY            SKY/WX      TMP DP  RH  WIND    PRES   REMARKS
HERMISTON       MOCLDY      41  34  76  W9      30.12F
#BOARDMAN SCHOOLN/A         44  31  60  CALM    30.13F
#BOARDMAN 8SW   N/A         43  31  62  W2      30.14F
#ECHO 8SW       N/A         41  32  70  W3      30.13S
#I-84 EX 198 DOTN/A         41  29  62  N9      N/A
#IONE SCHOOL    N/A         41  27  57  SW6     30.15F
#UMATILLA       N/A         40  34  79  CALM    30.08F
$$

ORZ507-222110-
NORTHERN FOOTHILLS OF THE BLUES

CITY            SKY/WX      TMP DP  RH  WIND    PRES   REMARKS
PENDLETON AIRPT MOCLDY      40  31  70  W12     30.08F WCI 33
#ADAMS 3WNW     N/A         39  30  70  S3      30.13F
#ATHENA         N/A         38  29  70  S6      30.16F
#CAYUSE         N/A         39  28  64  SW6     30.13F
#HELIX 3N       N/A         36  31  82  S7      30.04F
#HOLDMAN 5SE    N/A         40  33  76  SW6     30.08F
#HOLDMAN 6E     N/A         39  33  79  S3      29.93F
#M-F FERNDALE   N/A         42  31  65  CALM    30.08F
#M-F GROVE ELEM N/A         41  28  59  SW7     30.07F
#M-FREEWATER 5SEN/A         41  32  70  CALM    30.08F
#PENDLETON DNTN N/A         42  36  79  W2      30.10S
#PDT AQUATIC CTRN/A         41  29  62  CALM    30.10S
#PDT SUNRIDGE   N/A         41  31  67  SW3     30.11F
#PENDLETON 7NW  N/A         42  33  70  W6      32.03S
#PILOT ROCK 1S  N/A         41  24  50  CALM    30.08F
#PILOT ROCK     N/A         42  32  67  NE1     30.09F
#TUTUILLA       N/A         43  32  65  S5      30.13F
#UMAPINE 2E     N/A         42  33  70  SW5     30.09F
#WESTON SCHOOL  N/A         37  26  64  W6      29.96F

$$

ORZ508-222110-
SOUTHERN FOOTHILLS OF THE BLUES

CITY            SKY/WX      TMP DP  RH  WIND    PRES   REMARKS
LEXINGTON       PTCLDY      41  28  59  W7      30.12F
#AJAX           N/A         37  21  52  S7      30.22S
#CONDON SCHOOL  N/A         33  27  78  W5      30.01F
#CONDON 5W      N/A         31  23  72  NW10    30.00F
#HEPPNER EOC    N/A         38  28  67  W8      30.07F
#HEPPNER 4NE    N/A         34  27  75  W8      30.14F
#LEXINGTON 2SE  N/A         41  29  62  NW8     30.07F
#MIKKALO        N/A         40  27  59  NW7     30.20F
#OLEX 4N        N/A         41  32  70  W5      30.09F
#RUGGS 5NE      N/A         34  24  66  W10     30.20S
#RUGGS 2SW      N/A         33  26  75  W5      30.17F

$$

ORZ502-503-222110-
BLUE MOUNTAINS

CITY            SKY/WX      TMP DP  RH  WIND    PRES   REMARKS
MEACHAM         MOCLDY      30  22  72  VRB3    30.00F
#BATTLE MTN DOT N/A         30  20  66  NW10    N/A
#HEPPNER 15SE   N/A         33  27  78  CALM    30.26S
#LADD CYN SMT   N/A         32  23  69  NW10    N/A
#LADD CREEK ODOTN/A         35  23  61  CALM    N/A
#LONG CREEK HS  N/A         33  29  85  CALM    N/A
#N POWDER DOT   N/A         36  25  64  N18     N/A    WCI 26
#PIKES PEAK     N/A         28  26  92  NW8     27.99S
#TOLLGATE       N/A         27  26  96  CALM    29.82F
#TROY SCHOOL    N/A         42  34  73  S1      29.93F
#UKIAH          N/A         33  25  72  NW5     30.02F
#WESTON 4E      N/A         29  28  96  S5      30.11F
$$

ORZ505-222110-
JOHN DAY BASIN

CITY            SKY/WX      TMP DP  RH  WIND    PRES   REMARKS
JOHN DAY        MOCLDY      37  24  59  CALM    29.99F
#ANTELOPE 9ESE  N/A         42  27  55  CALM    N/A
#DAYVILLE SCHOOLN/A         41  21  44  W5      30.01F
#MITCHELL       N/A         35  29  78  N1      30.21F
#MITCHELL 8NW   N/A         33  23  66  N2      29.97S
#MONUMENT HS    N/A         40  27  59  CALM    30.02F
#MT. VERNON 5SE N/A         32  25  75  W1      29.94F
#SPRAY SCHOOL   N/A         40  N/A N/A CALM    N/A
#WINLOCK        N/A         36  26  67  N7      30.00F
$$

ORZ506-222110-
OCHOCO AND JOHN DAY HIGHLANDS

CITY            SKY/WX      TMP DP  RH  WIND    PRES   REMARKS
#HORSE RIDGE DO N/A         28  23  81  NW8     N/A
#PAULINA SCHOOL N/A         35  23  61  W6      N/A
#PINE MTN OBS   N/A         20  19  96  CALM    N/A
#PRAIRIE CITY   N/A         36  29  75  W1      30.18S
#SENECA         N/A         31  N/A N/A N6      N/A
#SENECA 9NW     N/A         31  23  72  NE1     30.06F
$$

ORZ049-222110-
GRANDE RONDE VALLEY

CITY            SKY/WX      TMP DP  RH  WIND    PRES   REMARKS
LA GRANDE       MOCLDY      37  28  70  NW13    30.02F WCI 29
#COVE           N/A         35  28  75  NW2     30.05F
#COVE 6NW       N/A         38  28  67  NW5     30.10F
#ELGIN 3N       N/A         37  24  59  CALM    30.00F
#ELGIN 1E       N/A         36  26  67  CALM    N/A
#IMBLER SCHOOL  N/A         34  26  72  CALM    29.99F
#ISLAND CITY 4N N/A         40  39  96  S1      30.22F
#LADD CYN DOT   N/A         37  25  61  W8      N/A
#UNION 1S       N/A         37  27  67  NW6     30.09F
$$

ORZ050-222110-
WALLOWA COUNTY

CITY            SKY/WX      TMP DP  RH  WIND    PRES   REMARKS
#IMNAHA SCHOOL  N/A         40  35  82  N1      30.03F
#IMNAHA 10S     N/A         36  31  82  CALM    29.99F
#JOSEPH 3N      N/A         30  23  75  SW2     30.01F
#JOSEPH 3W      N/A         31  25  78  CALM    29.81F
#LOSTINE        N/A         33  27  78  CALM    29.89F
#LOSTINE 3SE    N/A         32  26  78  N6      30.04F
#MT HOWARD 8000 N/A         16  14  92  CALM    29.77F
#PROMISE 1S     N/A         32  27  82  CALM    30.19F
#WALLOWA SCHOOL N/A         35  27  72  N1      29.99F



$$



USA.gov is the U.S. government's official web portal to all federal, state and local government web resources and services.